sat.trackr.live / text

‹ back to catalog

STARLINK-37849

NORAD 69499 · 2026-131X

PAYLOAD ACTIVE UNKNOWN

§ Identity

Operator
Country
US
Launch date
2026-06-11
Launch site
AFWTR
Launch vehicle
Mass (kg)
RCS (m²)

Purposes: comms

External: N2YO · Heavens-Above · Gunter

§ Orbital elements

Epoch: 2026-09-19T07:59:44.221344Z

Period
93.91 min
Inclination
97.2846°
Eccentricity
0.0001168
Mean motion
15.33452120 rev/d
Perigee alt
464.7 km
Apogee alt
466.3 km
Semi-major
6,843.7 km
B*
4.9166e-4
RAAN
283.2921°
Arg perigee
96.4470°
Mean anomaly
263.6906°
Rev number
1,546

§ Raw data

STARLINK-378491 69499U 26131X   26262.33315071  .00015834  00000+0  49166-3 0  99902 69499  97.2846 283.2921 0001168  96.4470 263.6906 15.33452120 15462

JSON: /api/v1/satellites/69499 · /tle

For live sub-satellite position, see the globe view (requires WebGL).

§ Visibility from observer

Set your observer location to see the next 7 days of passes ≥ 10°. The values pass through the URL so the page stays shareable.

No JS? Fill the form by hand. The geolocation button needs JavaScript.